カタログに戻る

CBERS 2B

運用中科学SSO
NORAD 32062·PAYLOAD·🇧🇷 Brazil🇨🇳 China

打ち上げ Sep 19, 2007 から Taiyuan Satellite Launch Center

Loading…

次のパス (今後24時間)

TLE

最新Source: Space-Track

元期: Sep 14, 2026, 18:36 UTC

1 32062U 07042A   26257.77525469  .00000190  00000-0  71267-4 0  9990
2 32062  98.3987 200.8867 0032169  65.9170 307.6013 14.41512092997597

AllMySatでCBERS 2Bをリアルタイム追跡

Download on the App Store